Weather History for Skagway, AK

Change the Weather History Date:

Sunday, August 11, 2013

  Actual Average Record
Temperature  
Mean Temperature 57 °F -  
Max Temperature 68 °F 64 °F 80 °F (1987)
Min Temperature 48 °F 49 °F 42 °F (1968)
Degree Days  
Heating Degree Days 8    
Growing Degree Days 7 (Base 50)    
Moisture  
Dew Point 50 °F    
Average Humidity 77    
Maximum Humidity 90    
Minimum Humidity 59    
Precipitation  
Precipitation 0.00 in - - ()
Sea Level Pressure  
Sea Level Pressure 30.02 in    
Wind  
Wind Speed 4 mph (WSW)    
Max Wind Speed 22 mph    
Max Gust Speed -    
Visibility 10 miles    
Events      
Averages and records for this station are not official NWS values.
T = Trace of Precipitation, MM = Missing Value Source: NWS Daily Summary

Daily Weather History Graph

Daily Weather History Graph

Search for Another Location

Airport:

Trip Planner

Search our weather history database for the weather conditions in past years. The results will help you decide how hot, cold, wet, or windy it might be!

Date:

Astronomy

Aug. 11, 2013 Rise Set
Actual Time 5:09 AM AKDT 9:01 PM AKDT
Civil Twilight 4:17 AM AKDT 9:52 PM AKDT
Nautical Twilight 2:58 AM AKDT 11:10 PM AKDT
Astronomical Twilight 1:38 AM AKDT 12:33 AM AKDT
Moon 11:36 AM AKDT (8/11) 9:45 PM AKDT (8/11)
Length of Visible Light 17h 34m
Length of Day
15h 51m
Waxing Crescent, 23% of the Moon is Illuminated
Aug 11
Waxing Crescent
Aug 14
First Quarter
Aug 20
Full
Aug 28
Last Quarter
Sep 5
New

Hourly Weather History & Observations

Time (AKDT) Temp. Dew Point Humidity Pressure Visibility Wind Dir Wind Speed Gust Speed Precip Events Conditions
12:53 AM 53.1 °F 48.0 °F 83% 30.06 in 10.0 mi NNE 3.5 mph - N/A   Clear
1:53 AM 53.1 °F 48.9 °F 86% 30.08 in 10.0 mi NE 4.6 mph - N/A   Clear
2:53 AM 51.1 °F 48.0 °F 89% 30.08 in 10.0 mi Calm Calm - N/A   Clear
3:53 AM 50.0 °F 46.9 °F 89% 30.08 in 10.0 mi Calm Calm - N/A   Clear
4:53 AM 50.0 °F 46.9 °F 89% 30.09 in 10.0 mi Calm Calm - N/A   Clear
5:53 AM 48.9 °F 46.0 °F 90% 30.08 in 10.0 mi NNE 3.5 mph - N/A   Clear
6:53 AM 50.0 °F 46.9 °F 89% 30.06 in 10.0 mi Calm Calm - N/A   Clear
7:53 AM 52.0 °F 48.9 °F 89% 30.07 in 10.0 mi NE 3.5 mph - N/A   Clear
8:53 AM 57.0 °F 50.0 °F 77% 30.04 in 10.0 mi Calm Calm - N/A   Clear
9:53 AM 54.0 °F 48.9 °F 83% 30.04 in 10.0 mi SW 3.5 mph - N/A   Clear
10:53 AM 55.9 °F 51.1 °F 84% 30.02 in 10.0 mi WSW 3.5 mph - N/A   Clear
11:53 AM 57.9 °F 51.1 °F 78% 30.01 in 10.0 mi WSW 5.8 mph - N/A   Clear
12:53 PM 60.1 °F 51.1 °F 72% 30.00 in 10.0 mi West 5.8 mph - N/A   Clear
1:53 PM 63.0 °F 52.0 °F 67% 29.99 in 10.0 mi SW 10.4 mph - N/A   Clear
2:53 PM 62.1 °F 52.0 °F 70% 29.98 in 10.0 mi WSW 10.4 mph - N/A   Clear
3:53 PM 64.0 °F 51.1 °F 63% 29.96 in 10.0 mi SW 17.3 mph - N/A   Clear
4:53 PM 64.9 °F 51.1 °F 61% 29.96 in 10.0 mi SW 21.9 mph - N/A   Clear
5:53 PM 66.0 °F 51.1 °F 59% 29.96 in 10.0 mi SW 17.3 mph - N/A   Clear
6:53 PM 63.0 °F 51.1 °F 65% 29.96 in 10.0 mi SSW 15.0 mph - N/A   Clear
7:53 PM 64.9 °F 52.0 °F 63% 29.97 in 10.0 mi Calm Calm - N/A   Clear
9:53 PM 61.0 °F 52.0 °F 72% 29.99 in 10.0 mi NNE 3.5 mph - N/A   Clear
10:53 PM 57.9 °F 52.0 °F 81% 29.99 in 10.0 mi Calm Calm - N/A   Clear
11:53 PM 57.0 °F 52.0 °F 83% 29.99 in 10.0 mi Calm Calm - N/A   Clear